Home   Weather   Rovaniemi   Past weeks
Flag for Finland

Past Weather in Rovaniemi, Finland — Yesterday and Last 2 Weeks

Now
37 °F

Light rain. More clouds than sun.


Feels Like: 33 °F
Forecast: 48 / 39 °F
Wind: 6 mph from Northeast

Location: Rovaniemi Airport

Current Time: May 25, 2019 at 6:15:29 am

Latest Report: May 25, 2019 at 5:50 am


Visibility: N/A

Pressure: 29.71 "Hg

Humidity: 100%

Dew Point: 37 °F

Location of RovaniemiLocation

Past Weather in Rovaniemi — Graph

°F

Rovaniemi Temperature Yesterday

Maximum temperature yesterday: 50 °F (at 12:50 pm)
Minimum temperature yesterday: 34 °F (at 3:20 am)
Average temperature yesterday: 43 °F

High & Low Weather Summary for the Past Weeks

 TemperatureHumidityPressure
High72 °F (May 19, 3:20 pm)100% (May 10, 7:50 pm)30.33 "Hg (May 10, 7:50 pm)
Low32 °F (May 13, 6:50 am)29% (May 18, 5:50 pm)29.62 "Hg (May 12, 1:50 pm)
Average47 °F69%30.07 "Hg
* Reported May 10 4:20 am — May 25 4:50 am, Rovaniemi. Weather by CustomWeather, © 2019

Note: Actual official high and low records may vary slightly from our data, if they occured in-between our weather recording intervals... More about our weather records

Advertising

Rovaniemi Weather History for the Previous 24 Hours

Scroll right to see more
 ConditionsComfort  
Time TempWeatherWind HumidityBarometerVisibility
4:50 am
Sat, May 25
37 °FLight rain. Mostly cloudy.6 mph93%29.71 "HgN/A
4:20 am37 °FLight rain. Broken clouds.5 mph100%29.74 "HgN/A
3:50 am37 °FLight rain. More clouds than sun.5 mph100%29.74 "HgN/A
2:50 am37 °FLight rain. Mostly cloudy.3 mph100%29.74 "HgN/A
2:20 am37 °FScattered showers. Partly cloudy.5 mph100%29.77 "HgN/A
1:50 am37 °FScattered showers. Mostly cloudy.5 mph100%29.77 "HgN/A
1:20 am37 °FPassing clouds.3 mph100%29.77 "HgN/A
12:50 am39 °FPassing clouds.5 mph93%29.77 "HgN/A
12:20 am39 °FLight rain. Passing clouds.5 mph93%29.77 "HgN/A
11:50 pm
Fri, May 24
39 °FLight rain. Passing clouds.5 mph93%29.80 "HgN/A
11:20 pm39 °FLight rain. Partly sunny.3 mph93%29.80 "HgN/A
10:50 pm39 °FLight rain. Broken clouds.3 mph93%29.80 "HgN/A
10:20 pm39 °FSprinkles. Partly sunny.6 mph93%29.80 "HgN/A
9:50 pm41 °FSprinkles. Partly sunny.8 mph81%29.80 "HgN/A
8:50 pm41 °FDrizzle. Overcast.9 mph81%29.83 "HgN/A
8:20 pm43 °FDrizzle. Partly sunny.10 mph76%29.83 "HgN/A
7:50 pm43 °FPartly sunny.9 mph71%29.83 "HgN/A
7:20 pm43 °FPassing clouds.13 mph71%29.83 "HgN/A
6:50 pm45 °FSunny.15 mph61%29.83 "Hg10 mi
6:20 pm46 °FSunny.14 mph57%29.83 "Hg10 mi
5:50 pm48 °FSunny.14 mph50%29.83 "Hg10 mi
5:20 pm48 °FSunny.12 mph43%29.83 "Hg10 mi
4:50 pm50 °FPassing clouds.10 mph40%29.83 "HgN/A
4:20 pm50 °FPassing clouds.10 mph40%29.83 "HgN/A
3:50 pm50 °FSunny.9 mph40%29.86 "Hg10 mi
3:20 pm50 °FPassing clouds.7 mph37%29.86 "HgN/A
2:50 pm50 °FPassing clouds.9 mph37%29.86 "HgN/A
2:20 pm50 °FPassing clouds.13 mph37%29.89 "HgN/A
1:50 pm48 °FPassing clouds.8 mph40%29.89 "HgN/A
1:20 pm48 °FSunny.9 mph40%29.89 "Hg10 mi
12:50 pm50 °FPassing clouds.10 mph37%29.89 "HgN/A
12:20 pm46 °FPassing clouds.9 mph40%29.92 "HgN/A
11:50 am48 °FPassing clouds.13 mph37%29.92 "HgN/A
11:20 am48 °FPassing clouds.6 mph37%29.92 "HgN/A
10:50 am48 °FPassing clouds.8 mph43%29.92 "HgN/A
10:20 am46 °FPassing clouds.10 mph43%29.95 "HgN/A
9:50 am46 °FPassing clouds.10 mph46%29.95 "HgN/A
9:20 am46 °FScattered clouds.8 mph46%29.95 "HgN/A
8:50 am45 °FScattered clouds.7 mph53%29.95 "HgN/A
8:20 am43 °FPassing clouds.6 mph53%29.95 "HgN/A
7:50 am43 °FPassing clouds.6 mph57%29.98 "HgN/A
7:20 am39 °FSunny.7 mph65%29.98 "Hg10 mi
6:50 am37 °FSunny.7 mph70%29.98 "Hg10 mi
6:20 am36 °FSunny.7 mph70%29.98 "Hg10 mi
Weather by CustomWeather, © 2019

See weather overview